Showing default

FIREFLY-3, 62710

Orbit data source: Space-Track

FIREFLY-3, 62710 is a payload satellite owned by Pixxel (IN) in SSO that was launched on Tue, 14 Jan 2025 UTC via an FALCON 9 launch vehicle from the Air Force Western Test Range (AFWTR). Payload-class satellites include a variety of spacecraft equipped with specific instruments for various scientific and technological missions. These include communications satellites like Starlink; space stations such as the ISS; scientific satellites like the Hubble; Earth observation satellites from companies like Planet Labs, Umbra, and HawkEye 360; GPS; miniature CubeSats for education and research; and military/defense satellites.

Loading next visibility...
Identifier
62710, 2025-009DF
Orbit
SSO
Country
Flag of ININ / IND
Related business
Manufacturer
Pixxel
Mission
Operational Commercial Imaging
Bus & Motor
FIREFLY, Unknown motor
Mass
60 kg wet, 60 kg dry
Launch date (UTC)
2025-01-14 (1 year ago)
Launch vehicle
FALCON 9
Launch site
Air Force Western Test Range (AFWTR)
Object type
Payload
Rocket body
Debris
Shape & HBR
Box + 2 Pan, 0.7 m
Radar Cross Section
0.338 m², Medium (>0.1 m² and < 1m²)

Expand to show TLE details & history
Last TLE update: 6 hours ago

TLE from 6 hours ago
0 FIREFLY-3
1 62710U 25009DF  26038.27915937  .00002258  00000-0  22426-3 0  9990
2 62710  97.7155 119.0965 0003907 227.3966 132.6925 14.92699898 57956
Epoch: 2026-02-07T06:41Z
TLE epoch observation values (Epoch: 2026-02-07T06:41:59.369Z)
Latitude
0.00005°
Longitude
-118.80584°
Altitude
594.412 km
Speed
7.562 km/s
True Right ascension
07h 56m 23s
True Declination
0° 00' 00"
Sunlit
Object was in full shadow at epoch
Visualization orbit readout
Latitude
Unknown
Longitude
Unknown
Altitude
Unknown
Speed
Unknown
Apparent Right ascension
Unknown
Apparent Declination
Unknown
Sunlit
N/A
Visualization observer readout
Local Sidereal Time
14:24:09
Azimuth
Unknown
Elevation
Unknown
Doppler factor
Unknown
Orbital elements
Apogee altitude
589.258 km
Perigee altitude
583.816 km
Semi-major axis
6,964.674 km
Eccentricity
0.00039
Inclination
97.7155°
RAAN
119.0965°
Arg. of periapsis
227.3966°
True anomaly
132.7254°
Mean anomaly
132.6925°
Eccentric anomaly
132.70895°
Mean motion
3.73415 °/min
Orbital period
96.41 mins
BSTAR
0.00022426
Loading maneuver chart data...
Computing Atmospheric mass density...
Loading historical data...
Loading historical data...
Loading historical data...
Loading historical data...
Loading historical data...
Loading historical data...
Loading historical data...

Documentation

Showing up to 5 results
|